Вернуться в каталог

FENGYUN 1C DEB

АктивенSSO
NORAD 29819·DEBRIS·🇨🇳 China

Запущен May 10, 1999 с Taiyuan Satellite Launch Center

Loading…

Ближайшие Пролёты (ближайшие 24 часа)

TLE

СвежийSource: Space-Track

Эпоха: Sep 14, 2026, 09:26 UTC

1 29819U 99025DM  26257.39347367  .00000502  00000-0  30151-3 0  9998
2 29819  98.7625 235.3427 0190764  16.1948 138.8429 14.02462298  4849

Отслеживайте FENGYUN 1C DEB в реальном времени с AllMySat

Download on the App Store